Weather History for Ruidoso, NM

Change the Weather History Date:

Friday, October 21, 2011

  Actual Average Record
Temperature  
Mean Temperature 60 °F -  
Max Temperature 71 °F 61 °F 77 °F (2001)
Min Temperature 48 °F 40 °F 17 °F (1996)
Degree Days  
Heating Degree Days 6    
Growing Degree Days 10 (Base 50)    
Moisture  
Dew Point 19 °F    
Average Humidity 22    
Maximum Humidity 37    
Minimum Humidity 10    
Precipitation  
Precipitation 0.00 in - - ()
Sea Level Pressure  
Sea Level Pressure 30.31 in    
Wind  
Wind Speed 9 mph (WNW)    
Max Wind Speed 16 mph    
Max Gust Speed 24 mph    
Visibility 10 miles    
Events      
Averages and records for this station are not official NWS values.
T = Trace of Precipitation, MM = Missing Value Source: NWS Daily Summary

Daily Weather History Graph

Daily Weather History Graph

Search for Another Location

Airport:

Trip Planner

Search our weather history database for the weather conditions in past years. The results will help you decide how hot, cold, wet, or windy it might be!

Date:

Astronomy

Oct. 21, 2011 Rise Set
Actual Time 7:11 AM MDT 6:21 PM MDT
Civil Twilight 6:46 AM MDT 6:46 PM MDT
Nautical Twilight 6:17 AM MDT 7:15 PM MDT
Astronomical Twilight 5:48 AM MDT 7:44 PM MDT
Moon 1:21 AM MDT 2:52 PM MDT
Length of Visible Light 12h 00m
Length of Day
11h 10m
Waning Crescent, 33% of the Moon is Illuminated
Oct 21
Waning Crescent
Oct 26
New
Nov 2
First Quarter
Nov 10
Full
Nov 18
Last Quarter

Hourly Weather History & Observations

Time (MDT) Temp. Dew Point Humidity Pressure Visibility Wind Dir Wind Speed Gust Speed Precip Events Conditions
12:15 AM 48.2 °F 23.0 °F 37% 30.28 in 10.0 mi SW 5.8 mph - N/A   Clear
12:35 AM 50.0 °F 23.0 °F 35% 30.28 in 10.0 mi West 5.8 mph - N/A   Clear
12:55 AM 50.0 °F 23.0 °F 35% 30.28 in 10.0 mi West 3.5 mph - N/A   Clear
1:15 AM 51.8 °F 21.2 °F 30% 30.28 in 10.0 mi WNW 5.8 mph - N/A   Clear
1:35 AM 50.0 °F 21.2 °F 32% 30.29 in 10.0 mi WNW 5.8 mph - N/A   Clear
1:55 AM 50.0 °F 23.0 °F 35% 30.29 in 10.0 mi WNW 8.1 mph - N/A   Clear
2:15 AM 53.6 °F 23.0 °F 30% 30.29 in 10.0 mi WNW 10.4 mph - N/A   Clear
2:35 AM 51.8 °F 21.2 °F 30% 30.29 in 10.0 mi WNW 9.2 mph - N/A   Clear
2:55 AM 48.2 °F 21.2 °F 34% 30.29 in 10.0 mi West 9.2 mph - N/A   Clear
3:15 AM 50.0 °F 19.4 °F 30% 30.29 in 10.0 mi West 10.4 mph - N/A   Clear
3:35 AM 53.6 °F 17.6 °F 24% 30.28 in 10.0 mi WNW 10.4 mph - N/A   Clear
3:55 AM 53.6 °F 17.6 °F 24% 30.28 in 10.0 mi WNW 9.2 mph - N/A   Clear
4:15 AM 51.8 °F 17.6 °F 26% 30.28 in 10.0 mi WNW 9.2 mph - N/A   Clear
4:35 AM 50.0 °F 15.8 °F 26% 30.29 in 10.0 mi West 11.5 mph - N/A   Clear
4:55 AM 50.0 °F 15.8 °F 26% 30.29 in 10.0 mi West 11.5 mph - N/A   Clear
5:15 AM 50.0 °F 15.8 °F 26% 30.30 in 10.0 mi West 12.7 mph - N/A   Clear
5:35 AM 50.0 °F 15.8 °F 26% 30.30 in 10.0 mi West 10.4 mph - N/A   Clear
5:55 AM 50.0 °F 15.8 °F 26% 30.30 in 10.0 mi West 11.5 mph - N/A   Clear
6:15 AM 50.0 °F 15.8 °F 26% 30.31 in 10.0 mi West 11.5 mph - N/A   Clear
6:35 AM 50.0 °F 15.8 °F 26% 30.32 in 10.0 mi West 11.5 mph - N/A   Clear
6:55 AM 50.0 °F 15.8 °F 26% 30.32 in 10.0 mi WNW 11.5 mph - N/A   Clear
7:15 AM 51.8 °F 15.8 °F 24% 30.32 in 10.0 mi WNW 9.2 mph - N/A   Clear
7:35 AM 50.0 °F 15.8 °F 26% 30.33 in 10.0 mi West 9.2 mph - N/A   Clear
7:55 AM 53.6 °F 15.8 °F 22% 30.34 in 10.0 mi West 9.2 mph - N/A   Clear
8:15 AM 55.4 °F 17.6 °F 23% 30.35 in 10.0 mi West 10.4 mph - N/A   Clear
8:35 AM 57.2 °F 17.6 °F 21% 30.36 in 10.0 mi West 9.2 mph - N/A   Clear
8:55 AM 59.0 °F 19.4 °F 22% 30.36 in 10.0 mi West 9.2 mph - N/A   Clear
9:15 AM 62.6 °F 19.4 °F 19% 30.37 in 10.0 mi West 8.1 mph - N/A   Clear
9:35 AM 62.6 °F 19.4 °F 19% 30.37 in 10.0 mi NW 4.6 mph - N/A   Clear
9:55 AM 62.6 °F 21.2 °F 20% 30.37 in 10.0 mi West 13.8 mph 18.4 mph N/A   Clear
10:15 AM 62.6 °F 23.0 °F 22% 30.37 in 10.0 mi NW 15.0 mph 20.7 mph N/A   Clear
10:35 AM 64.4 °F 23.0 °F 21% 30.37 in 10.0 mi NW 11.5 mph 18.4 mph N/A   Clear
10:55 AM 64.4 °F 23.0 °F 21% 30.37 in 10.0 mi NW 12.7 mph 23.0 mph N/A   Clear
11:15 AM 64.4 °F 23.0 °F 21% 30.36 in 10.0 mi NW 10.4 mph 19.6 mph N/A   Clear
11:35 AM 66.2 °F 23.0 °F 19% 30.36 in 10.0 mi North 12.7 mph 24.2 mph N/A   Clear
11:55 AM 66.2 °F 23.0 °F 19% 30.36 in 10.0 mi North 12.7 mph 18.4 mph N/A   Clear
12:15 PM 66.2 °F 23.0 °F 19% 30.35 in 10.0 mi NW 15.0 mph 20.7 mph N/A   Clear
12:35 PM 68.0 °F 23.0 °F 18% 30.34 in 10.0 mi NW 8.1 mph 16.1 mph N/A   Clear
12:55 PM 68.0 °F 23.0 °F 18% 30.33 in 10.0 mi NNW 13.8 mph 17.3 mph N/A   Clear
1:15 PM 68.0 °F 23.0 °F 18% 30.32 in 10.0 mi NNW 5.8 mph - N/A   Clear
1:35 PM 71.6 °F 23.0 °F 16% 30.31 in 10.0 mi WNW 16.1 mph 20.7 mph N/A   Clear
1:55 PM 69.8 °F 21.2 °F 16% 30.30 in 10.0 mi WNW 9.2 mph 18.4 mph N/A   Clear
2:15 PM 69.8 °F 17.6 °F 14% 30.29 in 10.0 mi South 9.2 mph 20.7 mph N/A   Clear
2:35 PM 71.6 °F 17.6 °F 13% 30.29 in 10.0 mi WNW 11.5 mph 16.1 mph N/A   Clear
2:55 PM 71.6 °F 15.8 °F 12% 30.29 in 10.0 mi West 5.8 mph 16.1 mph N/A   Clear
3:15 PM 71.6 °F 15.8 °F 12% 30.29 in 10.0 mi WNW 4.6 mph 19.6 mph N/A   Clear
3:35 PM 71.6 °F 12.2 °F 10% 30.28 in 10.0 mi WNW 12.7 mph 19.6 mph N/A   Clear
3:55 PM 69.8 °F 14.0 °F 12% 30.28 in 10.0 mi NW 16.1 mph 21.9 mph N/A   Clear
4:15 PM 69.8 °F 12.2 °F 11% 30.27 in 10.0 mi WNW 11.5 mph 16.1 mph N/A   Clear
4:35 PM 69.8 °F 14.0 °F 12% 30.28 in 10.0 mi NW 13.8 mph 19.6 mph N/A   Clear
4:55 PM 68.0 °F 14.0 °F 12% 30.28 in 10.0 mi NW 12.7 mph 17.3 mph N/A   Clear
5:15 PM 66.2 °F 14.0 °F 13% 30.28 in 10.0 mi WNW 10.4 mph - N/A   Clear
5:35 PM 66.2 °F 14.0 °F 13% 30.28 in 10.0 mi West 12.7 mph 18.4 mph N/A   Clear
5:55 PM 64.4 °F 14.0 °F 14% 30.29 in 10.0 mi West 10.4 mph - N/A   Clear
6:15 PM 62.6 °F 14.0 °F 15% 30.29 in 10.0 mi West 8.1 mph - N/A   Clear
6:35 PM 59.0 °F 15.8 °F 19% 30.29 in 10.0 mi West 6.9 mph - N/A   Clear
6:55 PM 59.0 °F 15.8 °F 19% 30.30 in 10.0 mi West 8.1 mph - N/A   Clear
7:15 PM 57.2 °F 14.0 °F 18% 30.30 in 10.0 mi West 8.1 mph - N/A   Clear
7:35 PM 57.2 °F 14.0 °F 18% 30.30 in 10.0 mi West 8.1 mph - N/A   Clear
7:55 PM 57.2 °F 14.0 °F 18% 30.30 in 10.0 mi West 10.4 mph - N/A   Clear
8:15 PM 55.4 °F 14.0 °F 20% 30.30 in 10.0 mi West 9.2 mph - N/A   Clear
8:35 PM 55.4 °F 14.0 °F 20% 30.30 in 10.0 mi West 9.2 mph - N/A   Clear
8:55 PM 55.4 °F 15.8 °F 21% 30.30 in 10.0 mi West 10.4 mph 21.9 mph N/A   Clear
9:15 PM 53.6 °F 15.8 °F 22% 30.30 in 10.0 mi West 11.5 mph - N/A   Clear
9:35 PM 51.8 °F 15.8 °F 24% 30.30 in 10.0 mi WSW 6.9 mph - N/A   Clear
9:55 PM 51.8 °F 15.8 °F 24% 30.30 in 10.0 mi SW 6.9 mph - N/A   Clear
10:15 PM 53.6 °F 15.8 °F 22% 30.30 in 10.0 mi West 9.2 mph - N/A   Clear
10:35 PM 50.0 °F 15.8 °F 26% 30.30 in 10.0 mi WNW 8.1 mph - N/A   Clear
10:55 PM 50.0 °F 15.8 °F 26% 30.30 in 10.0 mi WNW 11.5 mph - N/A   Clear
11:15 PM 50.0 °F 17.6 °F 28% 30.30 in 10.0 mi West 10.4 mph - N/A   Clear
11:35 PM 51.8 °F 17.6 °F 26% 30.30 in 10.0 mi West 9.2 mph - N/A   Clear
11:55 PM 51.8 °F 17.6 °F 26% 30.30 in 10.0 mi West 11.5 mph - N/A   Clear